Regional Weather Roundup
Issued by NWS Northern Indiana

Home | Current Version | Previous Version | Graphics & Text | Print | Product List | Glossary On
Versions: 1 2 3 4 5 6 7 8 9 10 11 12 13 14 15 16 17 18 19 20 21 22 23 24 25 26 27 28 29 30 31 32 33 34 35 36 37 38 39 40 41 42 43 44 45 46 47 48 49 50
000
ASUS43 KIWX 090300
RWRIWX

KIWX WEATHER ROUNDUP
NATIONAL WEATHER SERVICE NORTHERN INDIANA
1000 PM EST THU DEC 08 2016

NOTE: "FAIR" INDICATES FEW OR NO CLOUDS BELOW 12,000 FEET WITH NO
SIGNIFICANT WEATHER AND/OR OBSTRUCTIONS TO VISIBILITY.

* THESE STATIONS ARE NOT UNDER NWS QUALITY CONTROL. THEY ALSO MAY NOT
  REPORT WEATHER SUCH AS PRECIPITATION OR FOG.

INZ001>027-090400-
NORTHERN INDIANA

CITY           SKY/WX    TMP DP  RH WIND       PRES   REMARKS
GARY*          CLOUDY    25  16  68 W17G29    30.41R WCI  11
SOUTH BEND     LGT SNOW  21  18  88 SW12      30.35R FOG     WCI   9
GOSHEN         LGT SNOW  22  15  75 SW15      30.34S WCI   9
ANGOLA*        CLOUDY    19  18  93 W10       30.28S WCI   8
FORT WAYNE     FLURRIES  21  14  74 W20       30.36S WCI   6

$$
INZ028>050-090400-
CENTRAL INDIANA

CITY           SKY/WX    TMP DP  RH WIND       PRES   REMARKS
LAFAYETTE      FLURRIES  21  16  81 NW9       30.46R WCI  11
KOKOMO*        FLURRIES  20  16  84 NW12      30.43R WCI   8
MUNCIE*        FLURRIES  21  15  78 W9        30.41S WCI  11
INDIANAPOLIS   LGT SNOW  21  14  74 W13       30.45R WCI   9

$$
MIZ043>046-050>051-056>058-064>065-071>073-077>080-090400-
SOUTHWEST LOWER MICHIGAN

CITY           SKY/WX    TMP DP  RH WIND       PRES   REMARKS
BATTLE CREEK   CLOUDY    25  23  92 W10       30.25S WCI  15
BENTON HARBOR  FLURRIES  30  19  63 W14G24    30.31S WCI  19
COLDWATER*     FLURRIES  21  18  88 SW12      30.27S WCI   9
HILLSDALE*     CLOUDY    21  18  86 W12G17    30.24R WCI   9
HOLLAND        LGT SNOW  30  23  75 W12G20    30.26S WCI  20
GRAND RAPIDS   FLURRIES  28  22  78 W8        30.24R WCI  20
KALAMAZOO      LGT SNOW  26  22  84 W12       30.27S FOG     WCI  16
STURGIS*       FLURRIES  21  17  87 W12       30.29S WCI   9
THREE RIVERS*  LGT SNOW  22  19  89 W6        30.30S WCI  14

$$
OHZ001>008-015>018-024>025-090400-
NORTHWEST OHIO

CITY           SKY/WX    TMP DP  RH WIND       PRES   REMARKS
DEFIANCE       CLOUDY    22  14  71 W13G18    30.33R WCI  10
FINDLAY        MOCLDY    21  14  74 W23G30    30.30S WCI   5
TOLEDO EXPRESS MOCLDY    21  17  84 W16       30.29R WCI   7
TOLEDO METCALF CLOUDY    23  17  78 W18       30.29S WCI   9
LIMA           CLOUDY    20  16  84 W16G26    30.32S WCI   6

$$
AND FOR LAKE MICHIGAN COASTAL AND OPEN LAKE BUOY OBSERVATIONS

STATION/POSITION TEMP    WIND        PRES    VSBY  WAVE
                 AIR SEA DIR/SP/G                  HT/PER
                 (F)     (DEG/KT/KT) (MB)    (MI)  (FT/S)
CALUMET HARBOR    24     270/  8/ 15 1028.5R
BURNS HARBOR      27     280/ 20/ 24 1028.8S
SAINT JOSEPH      31     300/ 17/ 23 1027.4R

$$
&&



USA.gov is the U.S. government's official web portal to all federal, state and local government web resources and services.